Beaufort, NC

6:53 PM EST on December 02, 2016 (GMT -0500)
Smith

Weather History for KMRH - January, 2015

Change the Weather History Date:

Saturday, January 17, 2015

  Actual Average Record
Temperature  
Mean Temperature 46 °F -  
Max Temperature 57 °F 55 °F 70 °F (1950)
Min Temperature 37 °F 29 °F 9 °F (1977)
Degree Days  
Heating Degree Days 19    
Moisture  
Dew Point 37 °F    
Average Humidity 73    
Maximum Humidity 89    
Minimum Humidity 59    
Precipitation  
Precipitation 0.00 in - - ()
Sea Level Pressure  
Sea Level Pressure 30.30 in    
Wind  
Wind Speed 9 mph (NE)    
Max Wind Speed 14 mph    
Max Gust Speed 20 mph    
Visibility 10 miles    
Events      
Averages and records for this station are not official NWS values.
T = Trace of Precipitation, MM = Missing Value Source: NWS Daily Summary

Daily Weather History Graph

Daily Weather History Graph

Search for Another Location

Airport or City:

Trip Planner

Search our weather history database for the weather conditions in past years. The results will help you decide how hot, cold, wet, or windy it might be!

Date:

Astronomy

Jan. 17, 2015 Rise Set
Actual Time 7:13 AM EST 5:20 PM EST
Civil Twilight 6:45 AM EST 5:47 PM EST
Nautical Twilight 6:14 AM EST 6:18 PM EST
Astronomical Twilight 5:44 AM EST 6:49 PM EST
Moon 4:08 AM EST (1/17) 2:44 PM EST (1/17)
Length of Visible Light 11h 02m
Length of Day
10h 07m
Waning Crescent, 11% of the Moon is Illuminated
Jan 17
Waning Crescent
Jan 20
New
Jan 26
First Quarter
Feb 3
Full
Feb 11
Last Quarter

Hourly Weather History & Observations

Time (EST) Temp. Windchill Dew Point Humidity Pressure Visibility Wind Dir Wind Speed Gust Speed Precip Events Conditions
12:58 AM 39.9 °F 34.5 °F 32.0 °F 73% 30.21 in 10.0 mi North 8.1 mph - N/A   Clear
1:58 AM 41.0 °F 34.3 °F 30.9 °F 67% 30.23 in 10.0 mi North 11.5 mph - N/A   Clear
2:58 AM 37.9 °F 33.5 °F 30.0 °F 73% 30.25 in 10.0 mi NNE 5.8 mph - N/A   Clear
3:58 AM 37.9 °F 32.1 °F 30.0 °F 73% 30.25 in 10.0 mi NNE 8.1 mph - N/A   Clear
4:58 AM 37.9 °F 32.7 °F 34.0 °F 86% 30.27 in 10.0 mi NE 6.9 mph - N/A   Clear
5:58 AM 37.9 °F 32.1 °F 33.1 °F 83% 30.30 in 10.0 mi NNE 8.1 mph - N/A   Clear
6:58 AM 37.9 °F 32.7 °F 32.0 °F 79% 30.33 in 10.0 mi NE 6.9 mph - N/A   Clear
7:58 AM 39.0 °F 34.0 °F 33.1 °F 79% 30.33 in 10.0 mi NNE 6.9 mph - N/A   Clear
8:58 AM 43.0 °F 38.2 °F 35.1 °F 74% 30.35 in 10.0 mi NE 8.1 mph - N/A   Clear
9:58 AM 46.9 °F - 35.1 °F 63% 30.39 in 10.0 mi NE 11.5 mph 17.3 mph N/A   Clear
10:58 AM 48.9 °F - 35.1 °F 59% 30.38 in 10.0 mi ENE 11.5 mph - N/A   Clear
11:58 AM 51.1 °F - 37.0 °F 59% 30.37 in 10.0 mi ENE 9.2 mph - N/A   Clear
12:58 PM 53.1 °F - 39.0 °F 59% 30.35 in 10.0 mi NE 11.5 mph - N/A   Clear
1:58 PM 53.1 °F - 39.9 °F 61% 30.33 in 10.0 mi NE 10.4 mph - N/A   Clear
2:58 PM 52.0 °F - 39.9 °F 63% 30.32 in 10.0 mi East 10.4 mph - N/A   Clear
3:58 PM 50.0 °F - 39.0 °F 66% 30.32 in 10.0 mi NE 9.2 mph - N/A   Clear
4:58 PM 46.9 °F - 37.9 °F 71% 30.31 in 10.0 mi NE 6.9 mph - N/A   Clear
5:58 PM 43.0 °F 39.5 °F 37.9 °F 82% 30.31 in 10.0 mi NE 5.8 mph - N/A   Clear
6:58 PM 42.1 °F 38.4 °F 37.9 °F 85% 30.29 in 10.0 mi NE 5.8 mph - N/A   Clear
7:58 PM 42.1 °F 37.7 °F 37.9 °F 85% 30.27 in 10.0 mi NE 6.9 mph - N/A   Clear
8:58 PM 43.0 °F 39.5 °F 39.9 °F 89% 30.25 in 10.0 mi ENE 5.8 mph - N/A   Clear
9:58 PM 55.9 °F - 48.0 °F 75% 30.24 in 10.0 mi SE 11.5 mph 19.6 mph N/A   Clear
10:58 PM 55.9 °F - 48.0 °F 75% 30.23 in 10.0 mi SE 13.8 mph - N/A   Clear
11:58 PM 57.0 °F - 48.0 °F 72% 30.20 in 10.0 mi SE 12.7 mph 19.6 mph N/A   Partly Cloudy